Time,TemperatureF,DewpointF,PressureIn,WindDirection,WindDirectionDegrees,WindSpeedMPH,WindSpeedGustMPH,Humidity,HourlyPrecipIn,Conditions,Clouds,dailyrainin,SoftwareType,DateUTC
2013-02-05 00:10:00,43.7,43.2,29.92,SSW,202,0.0,-999.0,98,-99.99,,,0.00,Acu-Link.com,2013-02-05 08:10:00,
2013-02-05 00:26:00,43.5,43.0,29.94,SSW,202,0.0,-999.0,98,-99.99,,,0.00,Acu-Link.com,2013-02-05 08:26:00,
2013-02-05 00:41:00,43.2,42.7,29.92,South,180,0.0,-999.0,98,-99.99,,,0.00,Acu-Link.com,2013-02-05 08:41:00,
2013-02-05 00:56:00,43.7,43.2,29.93,South,180,0.0,-999.0,98,-99.99,,,0.00,Acu-Link.com,2013-02-05 08:56:00,
2013-02-05 01:11:00,43.5,43.0,29.92,SSW,202,0.0,-999.0,98,-99.99,,,0.00,Acu-Link.com,2013-02-05 09:11:00,
2013-02-05 01:26:00,43.9,43.4,29.95,SSE,157,0.0,-999.0,98,-99.99,,,0.00,Acu-Link.com,2013-02-05 09:26:00,
2013-02-05 01:41:00,43.3,42.8,29.93,SSW,202,0.0,-999.0,98,-99.99,,,0.00,Acu-Link.com,2013-02-05 09:41:00,
2013-02-05 01:56:00,42.8,42.3,29.94,South,180,0.0,-999.0,98,-99.99,,,0.00,Acu-Link.com,2013-02-05 09:56:00,
2013-02-05 02:11:00,42.4,41.9,29.94,SSW,202,0.0,-999.0,98,-99.99,,,0.00,Acu-Link.com,2013-02-05 10:11:00,
2013-02-05 02:26:00,42.4,41.9,29.94,SSW,202,0.0,-999.0,98,-99.99,,,0.00,Acu-Link.com,2013-02-05 10:26:00,
2013-02-05 02:42:00,41.9,41.4,29.93,SSE,157,0.0,-999.0,98,-99.99,,,0.00,Acu-Link.com,2013-02-05 10:42:00,
2013-02-05 02:57:00,42.1,41.6,29.95,SSE,157,0.0,-999.0,98,-99.99,,,0.00,Acu-Link.com,2013-02-05 10:57:00,
2013-02-05 03:12:00,42.8,42.3,29.93,South,180,2.7,-999.0,98,-99.99,,,0.00,Acu-Link.com,2013-02-05 11:12:00,
2013-02-05 03:27:00,42.8,42.3,29.93,SW,225,0.0,-999.0,98,-99.99,,,0.00,Acu-Link.com,2013-02-05 11:27:00,
2013-02-05 03:42:00,42.6,42.1,29.95,South,180,0.0,-999.0,98,-99.99,,,0.00,Acu-Link.com,2013-02-05 11:42:00,
2013-02-05 03:57:00,42.4,41.9,29.93,South,180,2.2,-999.0,98,-99.99,,,0.00,Acu-Link.com,2013-02-05 11:57:00,
2013-02-05 04:13:00,42.8,42.3,29.92,South,180,1.1,-999.0,98,-99.99,,,0.00,Acu-Link.com,2013-02-05 12:13:00,
2013-02-05 04:28:00,42.8,42.3,29.94,South,180,2.2,-999.0,98,-99.99,,,0.00,Acu-Link.com,2013-02-05 12:28:00,
2013-02-05 04:43:00,42.4,41.9,29.94,South,180,0.0,-999.0,98,-99.99,,,0.00,Acu-Link.com,2013-02-05 12:43:00,
2013-02-05 04:58:00,42.6,42.1,29.92,SSE,157,0.0,-999.0,98,-99.99,,,0.00,Acu-Link.com,2013-02-05 12:58:00,
2013-02-05 05:13:00,42.4,41.9,29.92,SSW,202,1.7,-999.0,98,-99.99,,,0.00,Acu-Link.com,2013-02-05 13:13:00,
2013-02-05 05:28:00,41.9,41.4,29.92,South,180,0.0,-999.0,98,-99.99,,,0.00,Acu-Link.com,2013-02-05 13:28:00,
2013-02-05 05:43:00,41.2,40.7,29.92,South,180,0.0,-999.0,98,-99.99,,,0.00,Acu-Link.com,2013-02-05 13:43:00,
2013-02-05 05:58:00,41.0,40.5,29.92,SSW,202,0.0,-999.0,98,-99.99,,,0.00,Acu-Link.com,2013-02-05 13:58:00,
2013-02-05 06:13:00,40.8,40.3,29.92,SSE,157,0.0,-999.0,98,-99.99,,,0.00,Acu-Link.com,2013-02-05 14:13:00,
2013-02-05 06:29:00,40.8,40.3,29.92,SW,225,0.0,-999.0,98,-99.99,,,0.00,Acu-Link.com,2013-02-05 14:29:00,
2013-02-05 06:44:00,40.5,40.0,29.93,SSE,157,0.0,-999.0,98,-99.99,,,0.00,Acu-Link.com,2013-02-05 14:44:00,
2013-02-05 06:59:00,40.3,39.8,29.95,South,180,0.0,-999.0,98,-99.99,,,0.00,Acu-Link.com,2013-02-05 14:59:00,
2013-02-05 07:14:00,40.3,39.8,29.94,SE,135,0.0,-999.0,98,-99.99,,,0.00,Acu-Link.com,2013-02-05 15:14:00,
2013-02-05 07:29:00,40.5,40.0,29.94,SW,225,0.0,-999.0,98,-99.99,,,0.00,Acu-Link.com,2013-02-05 15:29:00,
2013-02-05 07:44:00,41.2,40.7,29.93,ESE,112,2.7,-999.0,98,-99.99,,,0.00,Acu-Link.com,2013-02-05 15:44:00,
2013-02-05 07:59:00,42.1,41.6,29.93,South,180,2.2,-999.0,98,-99.99,,,0.00,Acu-Link.com,2013-02-05 15:59:00,
2013-02-05 08:14:00,43.3,42.8,29.94,South,180,2.7,-999.0,98,-99.99,,,0.00,Acu-Link.com,2013-02-05 16:14:00,
2013-02-05 08:29:00,45.0,44.5,29.95,South,180,1.7,-999.0,98,-99.99,,,0.00,Acu-Link.com,2013-02-05 16:29:00,
2013-02-05 08:44:00,46.0,45.5,29.93,SSE,157,1.7,-999.0,98,-99.99,,,0.00,Acu-Link.com,2013-02-05 16:44:00,
2013-02-05 09:00:00,46.9,46.4,29.95,SE,135,4.7,-999.0,98,-99.99,,,0.00,Acu-Link.com,2013-02-05 17:00:00,
2013-02-05 09:15:00,49.1,47.4,29.95,South,180,3.2,-999.0,94,-99.99,,,0.00,Acu-Link.com,2013-02-05 17:15:00,
2013-02-05 09:30:00,50.4,48.5,29.95,SW,225,1.7,-999.0,93,-99.99,,,0.00,Acu-Link.com,2013-02-05 17:30:00,
2013-02-05 09:45:00,50.7,48.5,29.94,SSE,157,3.7,-999.0,92,-99.99,,,0.00,Acu-Link.com,2013-02-05 17:45:00,
2013-02-05 10:00:00,50.9,48.1,29.93,South,180,2.2,-999.0,90,-99.99,,,0.00,Acu-Link.com,2013-02-05 18:00:00,
2013-02-05 10:15:00,51.4,48.3,29.95,SSE,157,4.7,-999.0,89,-99.99,,,0.00,Acu-Link.com,2013-02-05 18:15:00,
2013-02-05 10:30:00,51.4,48.0,29.94,SW,225,2.7,-999.0,88,-99.99,,,0.00,Acu-Link.com,2013-02-05 18:30:00,
2013-02-05 10:45:00,51.4,48.0,29.93,ENE,67,3.7,-999.0,88,-99.99,,,0.00,Acu-Link.com,2013-02-05 18:45:00,
2013-02-05 11:00:00,52.2,48.4,29.94,ENE,67,1.7,-999.0,87,-99.99,,,0.00,Acu-Link.com,2013-02-05 19:00:00,
2013-02-05 11:16:00,52.7,48.3,29.93,South,180,4.7,-999.0,85,-99.99,,,0.00,Acu-Link.com,2013-02-05 19:16:00,
2013-02-05 11:31:00,52.9,48.2,29.95,SSW,202,3.7,-999.0,84,-99.99,,,0.00,Acu-Link.com,2013-02-05 19:31:00,
2013-02-05 11:46:00,53.6,48.6,29.94,SSW,202,2.7,-999.0,83,-99.99,,,0.00,Acu-Link.com,2013-02-05 19:46:00,
2013-02-05 12:01:00,53.6,48.6,29.92,SSW,202,2.7,-999.0,83,-99.99,,,0.00,Acu-Link.com,2013-02-05 20:01:00,
2013-02-05 12:16:00,53.2,48.2,29.91,SW,225,2.2,-999.0,83,-99.99,,,0.00,Acu-Link.com,2013-02-05 20:16:00,
2013-02-05 12:31:00,53.8,48.8,29.90,South,180,4.2,-999.0,83,-99.99,,,0.00,Acu-Link.com,2013-02-05 20:31:00,
2013-02-05 12:46:00,54.0,49.3,29.89,WSW,247,2.7,-999.0,84,-99.99,,,0.00,Acu-Link.com,2013-02-05 20:46:00,
2013-02-05 13:01:00,54.0,48.6,29.90,South,180,3.2,-999.0,82,-99.99,,,0.00,Acu-Link.com,2013-02-05 21:01:00,
2013-02-05 13:16:00,54.5,48.5,29.89,SSE,157,4.2,-999.0,80,-99.99,,,0.00,Acu-Link.com,2013-02-05 21:16:00,
2013-02-05 13:32:00,55.0,48.6,29.91,West,270,2.2,-999.0,79,-99.99,,,0.00,Acu-Link.com,2013-02-05 21:32:00,
2013-02-05 13:47:00,54.9,48.5,29.90,WSW,247,1.7,-999.0,79,-99.99,,,0.00,Acu-Link.com,2013-02-05 21:47:00,
2013-02-05 14:02:00,54.7,48.7,29.90,SSE,157,4.2,-999.0,80,-99.99,,,0.00,Acu-Link.com,2013-02-05 22:02:00,
2013-02-05 14:17:00,55.6,49.5,29.90,SSE,157,2.7,-999.0,80,-99.99,,,0.00,Acu-Link.com,2013-02-05 22:17:00,
2013-02-05 14:32:00,55.2,49.1,29.89,South,180,1.7,-999.0,80,-99.99,,,0.00,Acu-Link.com,2013-02-05 22:32:00,
2013-02-05 14:47:00,55.8,49.4,29.88,ESE,112,1.7,-999.0,79,-99.99,,,0.00,Acu-Link.com,2013-02-05 22:47:00,
2013-02-05 15:02:00,55.8,49.7,29.89,SSW,202,3.2,-999.0,80,-99.99,,,0.00,Acu-Link.com,2013-02-05 23:02:00,
2013-02-05 15:17:00,56.3,49.9,29.90,SW,225,2.2,-999.0,79,-99.99,,,0.00,Acu-Link.com,2013-02-05 23:17:00,
2013-02-05 15:32:00,57.4,50.2,29.90,ESE,112,0.0,-999.0,77,-99.99,,,0.00,Acu-Link.com,2013-02-05 23:32:00,
2013-02-05 15:48:00,57.0,49.5,29.92,South,180,2.2,-999.0,76,-99.99,,,0.00,Acu-Link.com,2013-02-05 23:48:00,
2013-02-05 16:03:00,57.4,49.9,29.91,South,180,2.7,-999.0,76,-99.99,,,0.00,Acu-Link.com,2013-02-06 00:03:00,
2013-02-05 16:18:00,56.7,49.6,29.91,SE,135,1.7,-999.0,77,-99.99,,,0.00,Acu-Link.com,2013-02-06 00:18:00,
2013-02-05 16:33:00,56.7,49.6,29.93,ENE,67,0.0,-999.0,77,-99.99,,,0.00,Acu-Link.com,2013-02-06 00:33:00,
2013-02-05 16:48:00,56.1,49.0,29.92,SSE,157,0.0,-999.0,77,-99.99,,,0.00,Acu-Link.com,2013-02-06 00:48:00,
2013-02-05 17:03:00,55.4,49.0,29.93,SSE,157,2.2,-999.0,79,-99.99,,,0.00,Acu-Link.com,2013-02-06 01:03:00,
2013-02-05 17:18:00,54.5,48.5,29.93,SSW,202,0.0,-999.0,80,-99.99,,,0.00,Acu-Link.com,2013-02-06 01:18:00,
2013-02-05 17:33:00,53.8,48.8,29.93,SW,225,0.0,-999.0,83,-99.99,,,0.00,Acu-Link.com,2013-02-06 01:33:00,
2013-02-05 17:48:00,52.7,48.3,29.95,SW,225,0.0,-999.0,85,-99.99,,,0.00,Acu-Link.com,2013-02-06 01:48:00,
2013-02-05 18:04:00,51.8,48.1,29.94,SE,135,0.0,-999.0,87,-99.99,,,0.00,Acu-Link.com,2013-02-06 02:04:00,
2013-02-05 18:19:00,51.3,48.2,29.95,South,180,0.0,-999.0,89,-99.99,,,0.00,Acu-Link.com,2013-02-06 02:19:00,
2013-02-05 18:34:00,51.3,48.5,29.95,SSE,157,3.2,-999.0,90,-99.99,,,0.00,Acu-Link.com,2013-02-06 02:34:00,
2013-02-05 18:49:00,50.9,48.4,29.94,WSW,247,3.2,-999.0,91,-99.99,,,0.00,Acu-Link.com,2013-02-06 02:49:00,
2013-02-05 19:04:00,50.5,48.0,29.95,West,270,5.8,-999.0,91,-99.99,,,0.00,Acu-Link.com,2013-02-06 03:04:00,
2013-02-05 19:19:00,50.5,48.0,29.95,West,270,4.2,-999.0,91,-99.99,,,0.00,Acu-Link.com,2013-02-06 03:19:00,
2013-02-05 19:34:00,50.0,47.8,29.98,SSW,202,3.2,-999.0,92,-99.99,,,0.00,Acu-Link.com,2013-02-06 03:34:00,
2013-02-05 19:49:00,49.6,47.4,29.98,SE,135,4.2,-999.0,92,-99.99,,,0.00,Acu-Link.com,2013-02-06 03:49:00,
2013-02-05 20:04:00,49.1,47.2,29.96,SSW,202,1.7,-999.0,93,-99.99,,,0.00,Acu-Link.com,2013-02-06 04:04:00,
2013-02-05 20:20:00,48.7,47.1,29.97,South,180,1.1,-999.0,94,-99.99,,,0.00,Acu-Link.com,2013-02-06 04:20:00,
2013-02-05 20:35:00,48.4,46.8,29.99,SW,225,2.7,-999.0,94,-99.99,,,0.00,Acu-Link.com,2013-02-06 04:35:00,
2013-02-05 20:50:00,48.0,46.6,29.98,SE,135,0.0,-999.0,95,-99.99,,,0.00,Acu-Link.com,2013-02-06 04:50:00,
2013-02-05 21:05:00,47.5,46.4,30.00,South,180,3.7,-999.0,96,-99.99,,,0.00,Acu-Link.com,2013-02-06 05:05:00,
2013-02-05 21:20:00,46.9,46.1,29.99,SW,225,2.2,-999.0,97,-99.99,,,0.00,Acu-Link.com,2013-02-06 05:20:00,
2013-02-05 21:35:00,46.8,46.0,30.00,SSW,202,2.7,-999.0,97,-99.99,,,0.00,Acu-Link.com,2013-02-06 05:35:00,
2013-02-05 21:50:00,46.2,45.7,30.00,SSW,202,0.0,-999.0,98,-99.99,,,0.00,Acu-Link.com,2013-02-06 05:50:00,
2013-02-05 22:05:00,45.9,45.4,30.01,South,180,0.0,-999.0,98,-99.99,,,0.00,Acu-Link.com,2013-02-06 06:05:00,
2013-02-05 22:20:00,45.3,44.8,30.01,South,180,0.0,-999.0,98,-99.99,,,0.00,Acu-Link.com,2013-02-06 06:20:00,
2013-02-05 22:36:00,44.6,44.1,30.01,South,180,0.0,-999.0,98,-99.99,,,0.00,Acu-Link.com,2013-02-06 06:36:00,
2013-02-05 22:51:00,44.1,43.6,30.01,SSW,202,0.0,-999.0,98,-99.99,,,0.00,Acu-Link.com,2013-02-06 06:51:00,
2013-02-05 23:06:00,43.5,43.0,30.02,SE,135,0.0,-999.0,98,-99.99,,,0.00,Acu-Link.com,2013-02-06 07:06:00,
2013-02-05 23:21:00,43.5,43.0,30.04,NNW,337,0.0,-999.0,98,-99.99,,,0.00,Acu-Link.com,2013-02-06 07:21:00,
2013-02-05 23:36:00,42.8,42.3,30.04,NNW,337,0.0,-999.0,98,-99.99,,,0.00,Acu-Link.com,2013-02-06 07:36:00,
2013-02-05 23:51:00,42.1,41.6,30.04,NE,45,0.0,-999.0,98,-99.99,,,0.00,Acu-Link.com,2013-02-06 07:51:00,